Lihue, HI

4:39 PM HST on April 27, 2015 (GMT -1000)
Wheeler Army Air Field | | Change Station
CLOSE
Current Station
Airport
Location: Wheeler AAF,
Elevation: 837 ft
Nearby Weather Stations
Active Advisory: High Surf Advisory Active Notice: Record Report

Elev 837 ft 21.48 °N, 158.04 °W | Updated 17 minutes ago

Scattered Clouds
Scattered Clouds
75 °F
Feels Like 75 °F
N
13
Wind Variable Wind from NNE
Gusts 20 mph

Today
High -- | Low -- °F
--% Chance of Precip.
Yesterday
High -- | Low -- °F
Precip. -- in
6:08 AM 7:01 PM
Waxing Gibbous, 70% visible
Pressure 30.04 in
Visibility 10.0 miles
Clouds Scattered Clouds 2900 ft
Dew Point 63 °F
Humidity 65%
Rainfall 0.00 in
Snow Depth Not available.
UV 3 out of 12
Pollen Not available.
Air Quality Not available.
Flu Activity Regional
SPECI PHHI 280222Z AUTO 02011G17KT 10SM SCT029 24/17 A3004 RMK AO2

More Conditions Fewer Conditions

Pressure 30.04 in
Visibility 10.0 miles
Clouds Scattered Clouds 2900 ft
Dew Point 63 °F
Humidity 65%
Rainfall 0.00 in
Snow Depth Not available.
UV 3 out of 12
Pollen Not available.
Air Quality Not available.
Flu Activity Regional
SPECI PHHI 280222Z AUTO 02011G17KT 10SM SCT029 24/17 A3004 RMK AO2

More Conditions Fewer Conditions

10-Day Weather Forecast

Almanac

Astronomy

Apr. 27, 2015 Rise Set
Actual Time
Civil Twilight
Nautical Twilight
Astronomical Twilight
Moon
Length of Visible Light
Length of Day
Tomorrow will be .
, % of the Moon is Illuminated

Today's Extremes

State Highs State Lows

Community

WunderPhotos

Upload Photos

1,817,522 photos uploaded!

WunderBlogs® & News

Nearby

Air Quality

  Air Quality AQ Index Pollutant
Not available.

Snow Depth

Station Depth Elevation

Earthquake Activity

City Distance Mag. Time & Date
Minimum magnitude displayed is 2.5.

Coastal Water Temperatures

Place Temperature

Stations

Nearby Weather Stations

Station Location Temp. Windchill Dew Point Humidity Wind Precip. Elev Updated Type
                   
High Surf Advisory
Statement as of 4:00 PM HST on April 27, 2015

... High surf advisory now in effect until 6 am HST Thursday...

The high surf advisory is now in effect until 6 am HST Thursday.

* Surf... 10 to 15 feet along north facing shores and 6 to 9 feet
along east facing shores.

* Timing... along north facing shores... through Tuesday. Along east
facing shores... through Wednesday night.

* Impacts... moderate... expect strong breaking waves... shore
break... and strong longshore and rip currents making swimming
difficult and dangerous.

Precautionary/preparedness actions...

Beachgoers... swimmers... and surfers should heed all advice given
by ocean safety officials and exercise caution. Boaters should
expect recreational surfers and body boarders utilizing Harbor
channels to access surfing areas.